This demonstration page uses our WeatherBlox Daily Observations layout. Learn more.

Left ArrowRight Arrow

Hourly Observations for June 27, 2022

Temp ( °F °C ) Dew Point ( °F °C ) Humidity (%) Winds ( mph kmh ) Pressure ( in mb ) Visibility ( mi km ) Precip ( " mm )
12:53 am 00:53 Clear 51 10.6 40 4.4 66 66 W 3 6 30.15 1021 10 16 0.00 0.00
1:53 am 01:53 Clear 50 10 39 3.9 66 66 NNW 3 6 30.15 1021 10 16 0.00 0.00
2:53 am 02:53 Clear 46 7.8 36 2.2 68 68 W 3 6 30.16 1021 10 16 0.00 0.00
3:53 am 03:53 Clear 44 6.7 36 2.2 73 73 WSW 3 6 30.16 1022 10 16 0.00 0.00
4:53 am 04:53 Clear 41 5 36 2.2 82 82 SW 6 9 30.18 1022 10 16 0.00 0.00
5:53 am 05:53 Sunny 40 4.4 35 1.7 83 83 SW 6 9 30.19 1023 10 16 0.00 0.00
6:53 am 06:53 Sunny 47 8.3 40 4.4 77 77 W 5 7 30.19 1023 10 16 0.00 0.00
7:53 am 07:53 Sunny 54 12.2 42 5.6 64 64 WSW 6 9 30.18 1022 10 16 0.00 0.00
8:53 am 08:53 Sunny 62 16.7 42 5.6 48 48 W 7 11 30.18 1022 10 16 0.00 0.00
9:53 am 09:53 Sunny 69 20.6 43 6.1 39 39 undefined N/A 30.18 1022 10 16 0.00 0.00
10:53 am 10:53 Sunny 75 23.9 40 4.4 28 28 E 3 6 30.18 1022 10 16 0.00 0.00
11:53 am 11:53 Sunny 80 26.7 33 0.6 18 18 E 5 7 30.16 1021 10 16 0.00 0.00
12:53 pm 12:53 Sunny 82 27.8 35 1.7 18 18 VRB 7 11 30.14 1021 10 16 0.00 0.00
1:53 pm 13:53 Sunny 83 28.3 31 -0.6 15 15 E 8 13 30.12 1020 10 16 0.00 0.00
2:53 pm 14:53 Sunny 84 28.9 31 -0.6 15 15 ENE 8 13 30.11 1020 10 16 0.00 0.00
3:53 pm 15:53 Sunny 84 28.9 30 -1.1 14 14 ESE 3 6 30.10 1019 10 16 0.00 0.00
4:53 pm 16:53 Sunny 85 29.4 30 -1.1 14 14 SW 7 11 30.08 1019 10 16 0.00 0.00
5:53 pm 17:53 Sunny 85 29.4 33 0.6 15 15 E 8 13 30.07 1018 10 16 0.00 0.00
6:53 pm 18:53 Sunny 84 28.9 35 1.7 17 17 E 9 15 30.04 1017 10 16 0.00 0.00
7:53 pm 19:53 Sunny 81 27.2 37 2.8 21 21 ESE 12 19 30.03 1017 10 16 0.00 0.00
8:53 pm 20:53 Sunny 73 22.8 42 5.6 33 33 ESE 9 15 30.02 1017 10 16 0.00 0.00
9:53 pm 21:53 Clear 68 20 39 3.9 35 35 ESE 9 15 30.03 1017 10 16 0.00 0.00
10:53 pm 22:53 Clear 65 18.3 38 3.3 37 37 E 8 13 30.03 1017 10 16 0.00 0.00
11:53 pm 23:53 Clear 62 16.7 39 3.9 43 43 E 9 15 30.02 1017 10 16 0.00 0.00

Powered by AerisWeather